This demonstration page uses our WeatherBlox Daily Observations layout. Learn more.

Hourly Observations for July 18, 2020

Temp ( °F °C ) Dew Point ( °F °C ) Humidity (%) Winds ( mph kmh ) Pressure ( in mb ) Visibility ( mi km ) Precip ( " mm )
12:15 am 00:15 Clear 81 27.1 71 21.9 73 73 S 13 20 29.72 1006 10 16.0934 0 0
12:35 am 00:35 Clear 80 26.7 71 21.5 73 73 S 12 19 29.71 1006 10 16.0934 0 0
12:55 am 00:55 Clear 80 26.5 70 21.2 73 73 S 13 20 29.71 1006 10 16.0934 0 0
1:15 am 01:15 Clear 80 26.5 69 20.8 71 71 S 14 22 29.7 1006 10 16.0934 0 0
1:35 am 01:35 Clear 79 26.3 69 20.4 70 70 S 14 22 29.69 1005 10 16.0934 0 0
1:55 am 01:55 Clear 80 26.5 68 20 68 68 S 14 22 29.69 1005 10 16.0934 0 0
2:15 am 02:15 Clear 80 26.6 67 19.2 64 64 S 13 20 29.68 1005 10 16.0934 0 0
2:35 am 02:35 Clear 79 26.3 66 19 64 64 SSW 12 19 29.68 1005 10 16.0934 0 0
2:55 am 02:55 Clear 79 26 65 18.5 63 63 S 9 15 29.67 1005 10 16.0934 0 0
3:15 am 03:15 Clear 78 25.7 65 18.2 63 63 SSW 12 19 29.67 1005 10 16.0934 0 0
3:35 am 03:35 Clear 78 25.5 64 17.8 62 62 SSW 12 19 29.66 1005 10 16.0934 0 0
3:55 am 03:55 Clear 77 25 64 17.6 64 64 SSW 12 19 29.67 1005 10 16.0934 0 0
4:15 am 04:15 Clear 76 24.5 64 17.5 65 65 SSW 9 15 29.67 1005 10 16.0934 0 0
4:35 am 04:35 Clear 76 24.3 63 17.2 65 65 SSW 8 13 29.67 1005 10 16.0934 0 0
4:55 am 04:55 Clear 75 23.7 63 17 66 66 SSW 9 15 29.69 1005 10 16.0934 0 0
5:15 am 05:15 Clear 74 23.6 63 17 67 67 SSW 10 17 29.69 1005 10 16.0934 0 0
5:35 am 05:35 Clear 74 23.5 62 16.7 66 66 SSW 8 13 29.69 1005 10 16.0934 0 0
5:55 am 05:55 Clear 73 23 62 16.5 67 67 SSW 9 15 29.69 1006 10 16.0934 0 0
6:15 am 06:15 Clear 73 22.9 61 16 65 65 SSW 7 11 29.69 1006 10 16.0934 0 0
6:35 am 06:35 Sunny 73 23 60 15.4 62 62 SW 8 13 29.71 1006 10 16.0934 0 0
6:55 am 06:55 Sunny 74 23.5 59 15.1 59 59 SSW 9 15 29.7 1006 10 16.0934 0 0
7:15 am 07:15 Sunny 75 23.8 59 15 58 58 SW 10 17 29.7 1006 10 16.0934 0 0
7:35 am 07:35 Sunny 76 24.5 59 15 56 56 SW 10 17 29.7 1006 10 16.0934 0 0
7:55 am 07:55 Sunny 77 25 59 15.2 55 55 SW 10 17 29.7 1006 10 16.0934 0 0
8:15 am 08:15 Sunny 78 25.7 60 15.6 54 54 SSW 7 11 29.69 1005 10 16.0934 0 0
8:35 am 08:35 Sunny 80 26.4 61 16 53 53 SW 9 15 29.69 1005 10 16.0934 0 0
8:55 am 08:55 Sunny 80 26.9 61 16.2 52 52 SW 8 13 29.68 1005 10 16.0934 0 0
9:15 am 09:15 Sunny 81 27.1 61 16.1 51 51 SW 13 20 29.67 1005 10 16.0934 0 0
9:35 am 09:35 Sunny 81 27.4 62 16.4 51 51 SW 9 15 29.68 1005 10 16.0934 0 0
9:55 am 09:55 Sunny 82 28 62 16.7 50 50 SW 9 15 29.68 1005 10 16.0934 0 0
10:15 am 10:15 Sunny 84 28.7 63 17.1 49 49 WSW 8 13 29.68 1005 10 16.0934 0 0
10:35 am 10:35 Sunny 85 29.5 62 16.9 47 47 SW 12 19 29.67 1005 10 16.0934 0 0
10:55 am 10:55 Sunny 86 30.2 64 17.6 47 47 SW 7 11 29.67 1005 10 16.0934 0 0
11:15 am 11:15 Sunny 88 30.9 64 17.5 45 45 SW 10 17 29.66 1004 10 16.0934 0 0
11:35 am 11:35 Sunny 88 31 62 16.7 42 42 SW 9 15 29.66 1004 10 16.0934 0 0
11:55 am 11:55 Sunny 90 32.1 64 17.6 42 42 SW 10 17 29.66 1004 10 16.0934 0 0
12:15 pm 12:15 Sunny 91 32.7 63 17 39 39 SW 9 15 29.66 1004 10 16.0934 0 0
12:35 pm 12:35 Sunny 92 33.4 63 17.1 38 38 SW 7 11 29.65 1004 10 16.0934 0 0
12:55 pm 12:55 Sunny 93 33.7 63 17 37 37 SW 10 17 29.64 1004 10 16.0934 0 0
1:15 pm 13:15 Sunny 94 34.3 61 16.1 34 34 SW 8 13 29.64 1004 10 16.0934 0 0
1:35 pm 13:35 Sunny 94 34.6 63 17 35 35 SSW 10 17 29.63 1004 10 16.0934 0 0
1:55 pm 13:55 Sunny 95 34.8 62 16.7 34 34 SW 9 15 29.63 1003 10 16.0934 0 0
2:15 pm 14:15 Sunny 96 35.3 64 17.7 35 35 SW 8 13 29.63 1003 10 16.0934 0 0
2:35 pm 14:35 Sunny 95 35 64 17.9 36 36 WSW 6 9 29.63 1003 10 16.0934 0 0
2:55 pm 14:55 Sunny 95 35.1 67 19.5 40 40 WNW 7 11 29.62 1003 10 16.0934 0 0
3:15 pm 15:15 Sunny 93 33.9 70 21.1 47 47 WNW 6 9 29.63 1003 10 16.0934 0 0
3:35 pm 15:35 Sunny 93 34.1 69 20.4 45 45 WNW 3 6 29.64 1004 10 16.0934 0 0
3:55 pm 15:55 Sunny 94 34.6 71 21.4 46 46 Calm 29.63 1004 10 16.0934 0 0
4:15 pm 16:15 Sunny 94 34.5 69 20.6 44 44 W 3 6 29.62 1003 10 16.0934 0 0
4:35 pm 16:35 Sunny 92 33.1 71 21.9 52 52 Calm 29.64 1004 10 16.0934 0 0
4:55 pm 16:55 Sunny 91 32.6 74 23.2 58 58 Calm 29.65 1004 10 16.0934 0 0
5:15 pm 17:15 Sunny 91 33 74 23.2 56 56 Calm 29.67 1005 10 16.0934 0 0
5:35 pm 17:35 Sunny 94 34.3 75 23.9 55 55 Calm 29.65 1004 10 16.0934 0 0
5:55 pm 17:55 Sunny 93 34 72 22 49 49 Calm 29.65 1004 10 16.0934 0 0
6:15 pm 18:15 Sunny 85 29.5 71 21.9 64 64 N 14 22 29.69 1005 10 16.0934 0 0
6:35 pm 18:35 Sunny 83 28.5 70 21.2 65 65 N 13 20 29.71 1006 10 16.0934 0 0
6:55 pm 18:55 Sunny 82 27.5 70 21.2 69 69 N 15 24 29.73 1007 10 16.0934 0 0
7:15 pm 19:15 Partly Cloudy 80 26.9 70 21.2 71 71 N 14 22 29.74 1007 10 16.0934 0 0
7:35 pm 19:35 Sunny 79 26.3 70 21.1 73 73 N 13 20 29.76 1008 10 16.0934 0 0
7:55 pm 19:55 Sunny 78 25.8 70 21.2 76 76 NNE 18 30 29.75 1007 10 16.0934 0 0
8:15 pm 20:15 Sunny 78 25.5 69 20.7 75 75 NNE 16 26 29.75 1008 10 16.0934 0 0
8:35 pm 20:35 Sunny 77 25 69 20.6 77 77 NNE 10 17 29.78 1008 10 16.0934 0 0
8:55 pm 20:55 Sunny 77 24.8 69 20.8 79 79 N 10 17 29.78 1008 10 16.0934 0 0
9:15 pm 21:15 Partly Cloudy 75 24 70 21 83 83 N 9 15 29.79 1009 10 16.0934 0 0
9:35 pm 21:35 Clear with Thunderstorms 74 23.6 70 21.2 86 86 N 7 11 29.81 1009 10 16.0934 0 0
9:55 pm 21:55 Clear 74 23.6 70 21 85 85 N 8 13 29.81 1009 10 16.0934 0 0
10:15 pm 22:15 Clear 75 23.7 70 21 85 85 NNE 8 13 29.82 1010 10 16.0934 0 0
10:35 pm 22:35 Mostly Cloudy 75 23.7 70 21 85 85 S 7 11 29.87 1011 10 16.0934 0 0
10:55 pm 22:55 Cloudy with Nearby Thunderstorms 75 24.1 70 21.1 83 83 S 3 6 29.9 1013 10 16.0934 0 0
11:15 pm 23:15 Cloudy 75 24.1 70 21.2 84 84 NE 3 6 29.89 1012 10 16.0934 0 0
11:35 pm 23:35 Cloudy 74 23.6 70 21 85 85 NE 5 7 29.89 1012 10 16.0934 0 0
11:55 pm 23:55 Mostly Cloudy 74 23.5 70 21 86 86 NNE 6 9 29.89 1012 10 16.0934 0 0

Powered by AerisWeather